TimeEDT,TemperatureF,Dew PointF,Humidity,Sea Level PressureIn,VisibilityMPH,Wind Direction,Wind SpeedMPH,Gust SpeedMPH,PrecipitationIn,Events,Conditions,WindDirDegrees,DateUTC
12:15 AM,34.9,23.2,62,29.94,10.0,NW,6.9,-,N/A,,Mostly Cloudy,310,2013-03-21 04:15:00
12:35 AM,32.5,27.3,81,29.92,10.0,NE,3.5,-,N/A,,Scattered Clouds,40,2013-03-21 04:35:00
12:55 AM,32.0,27.0,82,29.92,10.0,Calm,Calm,-,N/A,,Scattered Clouds,0,2013-03-21 04:55:00
1:15 AM,33.3,25.0,72,29.92,10.0,NW,3.5,-,N/A,,Mostly Cloudy,310,2013-03-21 05:15:00
1:35 AM,31.8,27.7,85,29.91,10.0,Calm,Calm,-,N/A,,Mostly Cloudy,0,2013-03-21 05:35:00
2:15 AM,32.9,22.5,65,29.91,10.0,NNE,8.1,-,N/A,,Overcast,20,2013-03-21 06:15:00
2:35 AM,32.0,21.7,66,29.91,10.0,NNE,9.2,16.1,N/A,,Overcast,20,2013-03-21 06:35:00
2:55 AM,31.3,20.3,64,29.91,10.0,NNE,6.9,-,N/A,,Mostly Cloudy,30,2013-03-21 06:55:00
3:15 AM,31.1,16.7,55,29.90,10.0,North,5.8,-,N/A,,Scattered Clouds,360,2013-03-21 07:15:00
3:35 AM,30.4,13.5,50,29.90,10.0,WNW,5.8,-,N/A,,Clear,290,2013-03-21 07:35:00
3:55 AM,29.8,13.1,50,29.90,10.0,WNW,4.6,-,N/A,,Clear,300,2013-03-21 07:55:00
4:15 AM,28.9,12.4,50,29.89,10.0,Calm,Calm,-,N/A,,Clear,0,2013-03-21 08:15:00
4:35 AM,28.2,12.0,51,29.89,10.0,North,4.6,-,N/A,,Clear,360,2013-03-21 08:35:00
4:55 AM,27.5,10.2,48,29.89,10.0,North,6.9,-,N/A,,Clear,360,2013-03-21 08:55:00
5:15 AM,27.1,9.0,46,29.88,10.0,North,4.6,-,N/A,,Clear,350,2013-03-21 09:15:00
5:35 AM,27.0,6.6,42,29.88,10.0,North,8.1,-,N/A,,Clear,350,2013-03-21 09:35:00
5:55 AM,27.1,3.9,37,29.88,10.0,North,6.9,-,N/A,,Clear,360,2013-03-21 09:55:00
6:15 AM,26.1,5.7,42,29.88,10.0,NNE,6.9,-,N/A,,Clear,30,2013-03-21 10:15:00
6:35 AM,25.3,5.9,44,29.88,10.0,NE,4.6,-,N/A,,Clear,40,2013-03-21 10:35:00
6:55 AM,22.8,11.7,62,29.89,10.0,ENE,5.8,-,N/A,,Clear,70,2013-03-21 10:55:00
7:15 AM,23.0,11.5,61,29.89,10.0,East,6.9,-,N/A,,Clear,80,2013-03-21 11:15:00
7:35 AM,23.0,12.6,64,29.88,10.0,ENE,8.1,-,N/A,,Clear,70,2013-03-21 11:35:00
7:55 AM,22.8,12.4,64,29.89,10.0,ENE,8.1,-,N/A,,Clear,70,2013-03-21 11:55:00
8:15 AM,23.5,12.0,61,29.89,10.0,ENE,11.5,-,N/A,,Clear,70,2013-03-21 12:15:00
8:35 AM,24.3,12.0,60,29.89,10.0,East,10.4,-,N/A,,Clear,90,2013-03-21 12:35:00
8:55 AM,24.8,12.9,61,29.89,10.0,East,9.2,-,N/A,,Clear,90,2013-03-21 12:55:00
9:15 AM,25.7,13.6,60,29.90,10.0,ENE,8.1,-,N/A,,Clear,60,2013-03-21 13:15:00
9:35 AM,26.8,12.6,55,29.91,10.0,NNE,5.8,-,N/A,,Clear,20,2013-03-21 13:35:00
9:55 AM,27.0,12.0,53,29.91,10.0,Calm,Calm,-,N/A,,Clear,0,2013-03-21 13:55:00
10:15 AM,27.9,13.3,54,29.91,10.0,ESE,9.2,-,N/A,,Clear,120,2013-03-21 14:15:00
10:35 AM,28.8,12.6,51,29.91,10.0,South,5.8,-,N/A,,Clear,190,2013-03-21 14:35:00
10:55 AM,30.0,12.9,49,29.91,10.0,ESE,4.6,-,N/A,,Clear,120,2013-03-21 14:55:00
11:15 AM,31.3,12.9,47,29.92,10.0,Calm,Calm,-,N/A,,Clear,0,2013-03-21 15:15:00
11:35 AM,31.8,12.9,46,29.91,10.0,South,6.9,-,N/A,,Clear,170,2013-03-21 15:35:00
11:55 AM,32.7,11.3,41,29.91,10.0,SE,5.8,-,N/A,,Clear,140,2013-03-21 15:55:00
12:15 PM,34.2,11.1,39,29.91,10.0,SSE,3.5,-,N/A,,Clear,160,2013-03-21 16:15:00
12:35 PM,35.4,10.8,36,29.91,10.0,NNE,10.4,17.3,N/A,,Clear,30,2013-03-21 16:35:00
12:55 PM,35.8,10.0,34,29.90,10.0,NNE,9.2,-,N/A,,Clear,20,2013-03-21 16:55:00
1:15 PM,36.5,9.3,32,29.91,10.0,North,9.2,17.3,N/A,,Clear,350,2013-03-21 17:15:00
1:35 PM,38.1,11.1,33,29.90,10.0,WSW,4.6,-,N/A,,Clear,240,2013-03-21 17:35:00
1:55 PM,37.4,11.1,34,29.89,10.0,West,3.5,-,N/A,,Clear,270,2013-03-21 17:55:00
2:15 PM,38.1,11.3,33,29.89,10.0,NNE,6.9,-,N/A,,Clear,20,2013-03-21 18:15:00
2:35 PM,37.4,10.6,33,29.89,10.0,North,9.2,17.3,N/A,,Clear,360,2013-03-21 18:35:00
2:55 PM,37.6,10.9,33,29.89,10.0,North,11.5,16.1,N/A,,Clear,10,2013-03-21 18:55:00
3:15 PM,37.4,10.4,33,29.89,10.0,Calm,Calm,-,N/A,,Clear,0,2013-03-21 19:15:00
3:35 PM,39.9,14.4,35,29.89,10.0,NW,5.8,-,N/A,,Clear,310,2013-03-21 19:35:00
3:55 PM,39.9,14.9,36,29.89,10.0,West,16.1,-,N/A,,Clear,260,2013-03-21 19:55:00
4:15 PM,39.2,12.7,34,29.89,10.0,WSW,6.9,11.5,N/A,,Clear,250,2013-03-21 20:15:00
4:35 PM,39.4,11.5,32,29.89,10.0,Calm,Calm,-,N/A,,Clear,0,2013-03-21 20:35:00
4:55 PM,40.1,11.7,31,29.89,10.0,WSW,5.8,-,N/A,,Clear,240,2013-03-21 20:55:00
5:15 PM,39.7,10.4,30,29.89,10.0,North,4.6,-,N/A,,Clear,10,2013-03-21 21:15:00
5:35 PM,39.7,12.2,32,29.88,10.0,WSW,9.2,-,N/A,,Clear,240,2013-03-21 21:35:00
5:55 PM,39.4,12.6,33,29.89,10.0,West,9.2,12.7,N/A,,Clear,260,2013-03-21 21:55:00
6:15 PM,38.8,12.2,34,29.89,10.0,West,11.5,-,N/A,,Clear,270,2013-03-21 22:15:00
6:35 PM,38.7,10.0,31,29.88,10.0,East,5.8,-,N/A,,Clear,100,2013-03-21 22:35:00
6:55 PM,37.6,10.6,33,29.89,10.0,North,4.6,-,N/A,,Clear,360,2013-03-21 22:55:00
7:15 PM,37.0,10.8,34,29.89,10.0,North,3.5,-,N/A,,Clear,360,2013-03-21 23:15:00
7:35 PM,35.4,10.9,36,29.90,10.0,NW,4.6,-,N/A,,Clear,310,2013-03-21 23:35:00
7:55 PM,34.5,10.9,38,29.90,10.0,North,4.6,-,N/A,,Clear,360,2013-03-21 23:55:00
8:15 PM,32.9,12.9,44,29.90,10.0,NNE,3.5,-,N/A,,Clear,30,2013-03-22 00:15:00
8:35 PM,30.9,16.3,55,29.91,10.0,Calm,Calm,-,N/A,,Clear,0,2013-03-22 00:35:00
8:55 PM,30.2,15.1,53,29.92,10.0,Calm,Calm,-,N/A,,Clear,0,2013-03-22 00:55:00
9:15 PM,27.9,18.0,66,29.93,10.0,Calm,Calm,-,N/A,,Clear,0,2013-03-22 01:15:00
9:35 PM,27.7,17.1,64,29.92,10.0,NE,3.5,-,N/A,,Clear,50,2013-03-22 01:35:00
9:55 PM,27.0,17.1,66,29.93,10.0,Calm,Calm,-,N/A,,Clear,0,2013-03-22 01:55:00
10:15 PM,28.4,15.4,58,29.93,10.0,North,3.5,-,N/A,,Clear,350,2013-03-22 02:15:00
10:35 PM,26.8,17.1,67,29.94,10.0,Calm,Calm,-,N/A,,Clear,0,2013-03-22 02:35:00
10:55 PM,26.6,18.0,70,29.94,10.0,Calm,Calm,-,N/A,,Clear,0,2013-03-22 02:55:00
11:15 PM,27.1,17.4,67,29.95,10.0,Calm,Calm,-,N/A,,Clear,0,2013-03-22 03:15:00
11:35 PM,25.9,16.3,67,29.96,10.0,Calm,Calm,-,N/A,,Clear,0,2013-03-22 03:35:00
11:55 PM,25.3,19.0,77,29.96,10.0,Calm,Calm,-,N/A,,Clear,0,2013-03-22 03:55:00